ニート彗星

291P/NEAT (2013)

English version
Home page
Updated on May 7, 2015

---------------------------------------------------------------------

・ プロフィール

符号 291P/2013 N2
検出日 2013年7月11日
検出光度 20.2等
検出者 G. Hug (Scranton, KS, U.S.A.)

・ 写真集

・ 軌道要素

Epoch 2013 Dec. 14.0 TT = JDT 2456640.5
T 2013 Dec. 15.45409 TT                                 MPC
q   2.5909232            (2000.0)            P               Q
n   0.10151482     Peri.  176.07050     +0.54264947     -0.83503711
a   4.5511004      Node   241.04323     +0.76779116     +0.53695698
e   0.4307040      Incl.    5.95646     +0.34062925     +0.11995922
P   9.71
From 557 observations 2003 July 29-2014 Feb. 20, mean residual 0".6.

・ 星図

・ 光度変化

        m1 = 1.0 + 5 logΔ + 35.0 log r

---------------------------------------------------------------------

軌道要素はM.P.E.C. 2014-P41に掲載されたものです。
星図はステラナビゲータ Ver.8 (アストロアーツ) で作成したものです。
光度グラフはComet for Windowsで作成したものです。

---------------------------------------------------------------------

Copyright(C) Seiichi Yoshida (comet@aerith.net). All rights reserved.